SBI6522 UNKL-UNAA

Flight info

Callsign SBI6522
Flight time 0h 32m
Altitude 20000
Route IVRAS2F IVRAS G808 MIKET A817 RINAG RINAG1F
Aircraft A320/M-SDE3FGHIRWY/LB1

Departure

Time 2026-05-08 17:14
Airport Krasnoyarsk International Airport (UNKL)

Arrival

Time 2026-05-08 17:46
Airport Abakan International Airport (UNAA)
Time Latitude Longitude Altitude Speed Heading
2026-05-08 16:44 56.18109 92.47329 951 ft 0 kts 202°
2026-05-08 17:03 56.18120 92.47336 950 ft 2 kts 193°
2026-05-08 17:04 56.18136 92.47344 950 ft 2 kts 186°
2026-05-08 17:04 56.18152 92.47346 950 ft 2 kts 172°
2026-05-08 17:04 56.18168 92.47337 951 ft 2 kts 140°
2026-05-08 17:04 56.18178 92.47315 951 ft 2 kts 116°
2026-05-08 17:05 56.18180 92.47308 951 ft 0 kts 110°
2026-05-08 17:07 56.18174 92.47340 951 ft 7 kts 110°
2026-05-08 17:07 56.18141 92.47480 951 ft 17 kts 116°
2026-05-08 17:07 56.18083 92.47718 951 ft 25 kts 111°
2026-05-08 17:07 56.18012 92.47979 950 ft 18 kts 147°
2026-05-08 17:08 56.17922 92.47940 951 ft 17 kts 201°
2026-05-08 17:08 56.17789 92.47836 951 ft 13 kts 203°
2026-05-08 17:08 56.17785 92.47833 949 ft 0 kts 203°
2026-05-08 17:08 56.17779 92.47828 951 ft 6 kts 203°
2026-05-08 17:09 56.17703 92.47775 951 ft 17 kts 191°
2026-05-08 17:09 56.17638 92.47874 952 ft 9 kts 110°
2026-05-08 17:09 56.17606 92.48003 954 ft 21 kts 115°
2026-05-08 17:09 56.17521 92.48348 954 ft 33 kts 113°
2026-05-08 17:10 56.17430 92.48725 951 ft 33 kts 112°
2026-05-08 17:10 56.17339 92.49124 951 ft 40 kts 113°
2026-05-08 17:10 56.17210 92.49643 950 ft 46 kts 111°
2026-05-08 17:10 56.17097 92.50155 947 ft 36 kts 112°
2026-05-08 17:11 56.17115 92.50346 950 ft 14 kts 14°
2026-05-08 17:11 56.17224 92.50453 950 ft 20 kts 65°
2026-05-08 17:11 56.17181 92.50721 951 ft 26 kts 112°
2026-05-08 17:11 56.17101 92.51063 951 ft 33 kts 113°
2026-05-08 17:12 56.17013 92.51431 951 ft 32 kts 113°
2026-05-08 17:12 56.16925 92.51801 950 ft 32 kts 113°
2026-05-08 17:12 56.16841 92.51967 951 ft 15 kts 159°
2026-05-08 17:12 56.16715 92.52048 950 ft 17 kts 172°
2026-05-08 17:13 56.16676 92.51944 952 ft 9 kts 283°
2026-05-08 17:13 56.16693 92.51848 953 ft 9 kts 296°
2026-05-08 17:13 56.16697 92.51835 952 ft 4 kts 296°
2026-05-08 17:13 56.16829 92.51270 951 ft 95 kts 292°
2026-05-08 17:14 56.17188 92.49758 951 ft 169 kts 292°
2026-05-08 17:14 56.17675 92.47655 1544 ft 184 kts 292°
2026-05-08 17:14 56.18170 92.45528 2509 ft 190 kts 291°
2026-05-08 17:14 56.18722 92.43209 3219 ft 213 kts 291°
2026-05-08 17:15 56.19337 92.40628 3643 ft 237 kts 291°
2026-05-08 17:15 56.20017 92.37771 4073 ft 261 kts 292°
2026-05-08 17:15 56.20760 92.34647 4554 ft 281 kts 292°
2026-05-08 17:15 56.21528 92.31351 5235 ft 290 kts 289°
2026-05-08 17:16 56.21728 92.27800 5490 ft 289 kts 259°
2026-05-08 17:16 56.20835 92.24594 5745 ft 293 kts 228°
2026-05-08 17:16 56.19124 92.22668 5886 ft 301 kts 198°
2026-05-08 17:16 56.17028 92.22576 5917 ft 309 kts 167°
2026-05-08 17:17 56.15112 92.24341 5923 ft 315 kts 144°
2026-05-08 17:17 56.13437 92.26900 5919 ft 316 kts 140°
2026-05-08 17:17 56.11785 92.29505 5923 ft 316 kts 140°
2026-05-08 17:17 56.10128 92.32121 6162 ft 320 kts 140°
2026-05-08 17:18 56.09022 92.33863 6780 ft 321 kts 141°
2026-05-08 17:18 56.07230 92.36274 7632 ft 323 kts 148°
2026-05-08 17:18 56.04663 92.39044 8741 ft 328 kts 152°
2026-05-08 17:18 56.02641 92.41014 9555 ft 333 kts 153°
2026-05-08 17:19 56.00584 92.42991 10309 ft 338 kts 153°
2026-05-08 17:19 55.99211 92.44325 10802 ft 341 kts 153°
2026-05-08 17:19 55.97118 92.46371 11552 ft 345 kts 155°
2026-05-08 17:19 55.94879 92.47923 12277 ft 347 kts 167°
2026-05-08 17:20 55.92493 92.48661 12995 ft 350 kts 179°
2026-05-08 17:20 55.90050 92.48650 13692 ft 353 kts 184°
2026-05-08 17:20 55.86742 92.48512 14559 ft 358 kts 184°
2026-05-08 17:20 55.84275 92.48415 15182 ft 362 kts 184°
2026-05-08 17:21 55.82568 92.48349 15605 ft 365 kts 184°
2026-05-08 17:21 55.80018 92.48252 16244 ft 368 kts 184°
2026-05-08 17:21 55.77480 92.48154 16860 ft 372 kts 184°
2026-05-08 17:21 55.74875 92.48051 17459 ft 376 kts 184°
2026-05-08 17:22 55.72244 92.47946 18072 ft 380 kts 184°
2026-05-08 17:22 55.69586 92.47840 18621 ft 384 kts 184°
2026-05-08 17:22 55.66900 92.47736 19162 ft 388 kts 184°
2026-05-08 17:22 55.64194 92.47636 19686 ft 391 kts 184°
2026-05-08 17:23 55.61465 92.47534 19882 ft 393 kts 184°
2026-05-08 17:23 55.58729 92.47425 19934 ft 393 kts 184°
2026-05-08 17:23 55.56033 92.47318 19933 ft 393 kts 184°
2026-05-08 17:23 55.53296 92.47212 19937 ft 393 kts 184°
2026-05-08 17:24 55.50564 92.47106 19939 ft 393 kts 184°
2026-05-08 17:24 55.47825 92.47001 19941 ft 393 kts 184°
2026-05-08 17:24 55.45087 92.46897 19943 ft 394 kts 184°
2026-05-08 17:24 55.42348 92.46795 19940 ft 394 kts 184°
2026-05-08 17:25 55.39611 92.46683 19940 ft 393 kts 186°
2026-05-08 17:25 55.36919 92.46023 19940 ft 389 kts 197°
2026-05-08 17:25 55.34289 92.44876 19943 ft 389 kts 197°
2026-05-08 17:25 55.31660 92.43733 19940 ft 390 kts 197°
2026-05-08 17:26 55.29060 92.42613 19945 ft 390 kts 197°
2026-05-08 17:26 55.26427 92.41484 19952 ft 390 kts 197°
2026-05-08 17:26 55.23786 92.40356 19947 ft 390 kts 197°
2026-05-08 17:26 55.21146 92.39231 19952 ft 390 kts 197°
2026-05-08 17:27 55.18510 92.38108 19955 ft 390 kts 197°
2026-05-08 17:27 55.15867 92.36985 19953 ft 391 kts 197°
2026-05-08 17:27 55.13224 92.35865 19956 ft 391 kts 197°
2026-05-08 17:27 55.10588 92.34743 19956 ft 391 kts 197°
2026-05-08 17:28 55.07978 92.33633 19958 ft 391 kts 197°
2026-05-08 17:28 55.05335 92.32513 19954 ft 391 kts 197°
2026-05-08 17:28 55.02700 92.31397 19954 ft 391 kts 197°
2026-05-08 17:28 55.00054 92.30276 19953 ft 391 kts 197°
2026-05-08 17:29 54.97412 92.29156 19953 ft 391 kts 197°
2026-05-08 17:29 54.94766 92.28035 19951 ft 391 kts 197°
2026-05-08 17:29 54.92123 92.26918 19950 ft 391 kts 197°
2026-05-08 17:29 54.89480 92.25805 19950 ft 391 kts 197°
2026-05-08 17:30 54.86828 92.24695 19948 ft 391 kts 197°
2026-05-08 17:30 54.84181 92.23590 19947 ft 392 kts 197°
2026-05-08 17:30 54.81534 92.22481 19939 ft 390 kts 197°
2026-05-08 17:30 54.78958 92.21401 19217 ft 384 kts 197°
2026-05-08 17:31 54.76376 92.20321 18416 ft 380 kts 196°
2026-05-08 17:31 54.73822 92.19255 17556 ft 376 kts 196°
2026-05-08 17:31 54.71298 92.18207 16745 ft 370 kts 196°
2026-05-08 17:31 54.68813 92.17173 15965 ft 365 kts 196°
2026-05-08 17:32 54.66361 92.16151 15202 ft 360 kts 196°
2026-05-08 17:32 54.63947 92.15145 14474 ft 355 kts 196°
2026-05-08 17:32 54.61563 92.14154 13759 ft 350 kts 196°
2026-05-08 17:32 54.59214 92.13179 12949 ft 345 kts 195°
2026-05-08 17:33 54.56928 92.12228 12162 ft 340 kts 195°
2026-05-08 17:33 54.54641 92.11285 11373 ft 336 kts 195°
2026-05-08 17:33 54.52386 92.10350 10613 ft 331 kts 195°
2026-05-08 17:33 54.50160 92.09433 9866 ft 327 kts 195°
2026-05-08 17:34 54.47963 92.08531 9050 ft 323 kts 195°
2026-05-08 17:34 54.45796 92.07635 8248 ft 318 kts 195°
2026-05-08 17:34 54.43679 92.06640 7456 ft 313 kts 202°
2026-05-08 17:34 54.41744 92.05035 6708 ft 306 kts 212°
2026-05-08 17:35 54.39913 92.03209 5907 ft 303 kts 212°
2026-05-08 17:35 54.38123 92.01441 5113 ft 300 kts 211°
2026-05-08 17:35 54.36320 91.99669 4339 ft 297 kts 211°
2026-05-08 17:35 54.34537 91.97920 4073 ft 296 kts 211°
2026-05-08 17:36 54.32744 91.96164 3979 ft 297 kts 211°
2026-05-08 17:36 54.30942 91.94404 3994 ft 298 kts 211°
2026-05-08 17:36 54.29133 91.92642 3998 ft 299 kts 211°
2026-05-08 17:36 54.27325 91.90878 3999 ft 299 kts 211°
2026-05-08 17:37 54.25524 91.89114 4001 ft 298 kts 211°
2026-05-08 17:37 54.23721 91.87347 3997 ft 299 kts 211°
2026-05-08 17:37 54.21940 91.85611 4000 ft 299 kts 211°
2026-05-08 17:37 54.20135 91.83856 4001 ft 299 kts 211°
2026-05-08 17:38 54.18328 91.82102 4005 ft 299 kts 211°
2026-05-08 17:38 54.16515 91.80341 4003 ft 299 kts 211°
2026-05-08 17:38 54.14708 91.78587 4003 ft 300 kts 211°
2026-05-08 17:38 54.12908 91.76792 3991 ft 299 kts 216°
2026-05-08 17:39 54.11228 91.74701 4005 ft 299 kts 218°
2026-05-08 17:39 54.09576 91.72631 4006 ft 299 kts 217°
2026-05-08 17:39 54.07934 91.70583 4002 ft 282 kts 217°
2026-05-08 17:39 54.06404 91.68682 3997 ft 262 kts 218°
2026-05-08 17:40 54.04973 91.66909 3999 ft 250 kts 217°
2026-05-08 17:40 54.03577 91.65180 4009 ft 248 kts 218°
2026-05-08 17:40 54.02188 91.63457 3989 ft 247 kts 218°
2026-05-08 17:40 54.00827 91.61763 3854 ft 236 kts 218°
2026-05-08 17:41 53.99517 91.60188 3728 ft 226 kts 213°
2026-05-08 17:41 53.98187 91.58868 3577 ft 217 kts 212°
2026-05-08 17:41 53.96908 91.57605 3342 ft 215 kts 212°
2026-05-08 17:41 53.95621 91.56333 3029 ft 213 kts 212°
2026-05-08 17:42 53.94274 91.55003 2724 ft 211 kts 212°
2026-05-08 17:42 53.93047 91.53681 2531 ft 207 kts 214°
2026-05-08 17:42 53.91794 91.52473 2514 ft 208 kts 208°
2026-05-08 17:42 53.90490 91.51397 2513 ft 208 kts 207°
2026-05-08 17:43 53.89189 91.50371 2504 ft 201 kts 206°
2026-05-08 17:43 53.87977 91.49423 2504 ft 191 kts 206°
2026-05-08 17:43 53.86779 91.48484 2510 ft 190 kts 207°
2026-05-08 17:43 53.85585 91.47541 2476 ft 189 kts 207°
2026-05-08 17:44 53.84386 91.46608 2402 ft 189 kts 206°
2026-05-08 17:44 53.83189 91.45702 2260 ft 188 kts 206°
2026-05-08 17:44 53.82014 91.44783 2009 ft 182 kts 206°
2026-05-08 17:44 53.80907 91.43893 1834 ft 169 kts 206°
2026-05-08 17:45 53.79903 91.43089 1762 ft 150 kts 205°
2026-05-08 17:45 53.78968 91.42395 1703 ft 144 kts 203°
2026-05-08 17:45 53.78070 91.41732 1562 ft 142 kts 207°
2026-05-08 17:45 53.77195 91.40972 1345 ft 141 kts 204°
2026-05-08 17:46 53.76297 91.40304 1109 ft 141 kts 204°
2026-05-08 17:46 53.75414 91.39598 896 ft 140 kts 206°
2026-05-08 17:46 53.74567 91.38943 832 ft 122 kts 202°
2026-05-08 17:46 53.73991 91.38508 835 ft 48 kts 206°
2026-05-08 17:47 53.73736 91.38303 830 ft 48 kts 205°
2026-05-08 17:47 53.73411 91.38055 838 ft 50 kts 205°
2026-05-08 17:47 53.73150 91.37878 836 ft 24 kts 187°
2026-05-08 17:47 53.73122 91.37852 833 ft 2 kts 307°
2026-05-08 17:48 53.73222 91.37911 837 ft 32 kts 23°
2026-05-08 17:48 53.73516 91.38128 838 ft 58 kts 24°
2026-05-08 17:48 53.73912 91.38442 836 ft 61 kts 25°
2026-05-08 17:48 53.74238 91.38697 833 ft 41 kts 27°
2026-05-08 17:49 53.74374 91.38973 835 ft 31 kts 53°
2026-05-08 17:49 53.74500 91.39206 835 ft 12 kts 27°
2026-05-08 17:49 53.74570 91.39263 834 ft 10 kts 24°
2026-05-08 17:49 53.74633 91.39311 834 ft 9 kts 24°
2026-05-08 17:50 53.74697 91.39370 833 ft 12 kts 53°
2026-05-08 17:50 53.74689 91.39465 834 ft 0 kts 115°